El Paso, TX

11:25 AM MDT on May 28, 2017 (GMT -0600)
El Paso International

Weather History for KELP - February, 2015

Change the Weather History Date:

Monday, February 23, 2015

  Actual Average Record
Temperature  
Mean Temperature 37 °F 52 °F  
Max Temperature 44 °F 65 °F 84 °F (1904)
Min Temperature 30 °F 39 °F 20 °F (1976)
Degree Days  
Heating Degree Days 28 13  
Month to date heating degree days 233 356  
Since 1 July heating degree days 1726 2041  
Cooling Degree Days 0 0  
Month to date cooling degree days 1 0  
Year to date cooling degree days 1 0  
Moisture  
Dew Point 23 °F    
Average Humidity 60    
Maximum Humidity 78    
Minimum Humidity 41    
Precipitation  
Precipitation 0.01 in 0.01 in 0.18 in (1923)
Month to date precipitation 0.01 0.39  
Year to date precipitation 0.86 0.79  
Snow  
Snow 0.00 in - - ()
Month to date snowfall 0.0  
Since 1 July snowfall T  
Snow Depth 0.00 in    
Sea Level Pressure  
Sea Level Pressure 30.17 in    
Wind  
Wind Speed 10 mph (ENE)    
Max Wind Speed 17 mph    
Max Gust Speed 22 mph    
Visibility 10 miles    
Events Rain    
T = Trace of Precipitation, MM = Missing Value Source: NWS Daily Summary

Daily Weather History Graph

Daily Weather History Graph

Search for Another Location

Airport or City:

Trip Planner

Search our weather history database for the weather conditions in past years. The results will help you decide how hot, cold, wet, or windy it might be!

Date:

Astronomy

Feb. 23, 2015 Rise Set
Actual Time 6:39 AM MST 5:58 PM MST
Civil Twilight 6:14 AM MST 6:23 PM MST
Nautical Twilight 5:46 AM MST 6:51 PM MST
Astronomical Twilight 5:18 AM MST 7:19 PM MST
Moon 9:53 AM MST (2/23) 11:28 PM MST (2/23)
Length of Visible Light 12h 08m
Length of Day
11h 19m
Waxing Crescent, 30% of the Moon is Illuminated
Feb 23
Waxing Crescent
Feb 25
First Quarter
Mar 5
Full
Mar 13
Last Quarter
Mar 20
New

Hourly Weather History & Observations

Time (MST) Temp. Windchill Dew Point Humidity Pressure Visibility Wind Dir Wind Speed Gust Speed Precip Events Conditions
12:51 AM 36.0 °F 29.0 °F 26.1 °F 67% 30.14 in 10.0 mi ENE 9.2 mph - N/A Rain Light Rain
1:51 AM 35.1 °F 27.9 °F 24.1 °F 64% 30.14 in 10.0 mi ENE 9.2 mph - 0.00 in   Overcast
2:51 AM 33.1 °F 24.4 °F 25.0 °F 72% 30.14 in 10.0 mi East 11.5 mph - 0.00 in Rain Light Rain
3:51 AM 32.0 °F 24.8 °F 27.0 °F 82% 30.14 in 10.0 mi ENE 8.1 mph - 0.01 in Rain Light Rain
4:51 AM 30.9 °F 22.8 °F 25.0 °F 79% 30.15 in 10.0 mi East 9.2 mph - 0.00 in   Overcast
5:51 AM 30.9 °F 23.5 °F 24.1 °F 76% 30.19 in 10.0 mi East 8.1 mph - N/A   Overcast
6:51 AM 30.0 °F 20.5 °F 23.0 °F 75% 30.22 in 10.0 mi East 11.5 mph - N/A   Overcast
7:51 AM 30.0 °F 21.7 °F 23.0 °F 75% 30.25 in 10.0 mi ENE 9.2 mph - N/A   Overcast
8:51 AM 30.9 °F 21.2 °F 23.0 °F 72% 30.27 in 10.0 mi East 12.7 mph - N/A   Overcast
9:51 AM 32.0 °F 22.5 °F 23.0 °F 69% 30.27 in 10.0 mi ENE 12.7 mph - N/A   Overcast
10:51 AM 34.0 °F 25.5 °F 23.0 °F 64% 30.27 in 10.0 mi East 11.5 mph - N/A   Overcast
11:51 AM 36.0 °F 27.5 °F 23.0 °F 59% 30.24 in 10.0 mi East 12.7 mph - N/A   Overcast
12:51 PM 39.0 °F 30.6 °F 23.0 °F 53% 30.20 in 10.0 mi East 15.0 mph 20.7 mph N/A   Mostly Cloudy
1:34 PM 39.9 °F 34.5 °F 23.0 °F 51% 30.19 in 10.0 mi ENE 8.1 mph 21.9 mph N/A   Mostly Cloudy
1:51 PM 39.9 °F 33.4 °F 23.0 °F 51% 30.16 in 10.0 mi East 10.4 mph 19.6 mph N/A   Mostly Cloudy
2:51 PM 43.0 °F 36.4 °F 23.0 °F 45% 30.13 in 10.0 mi ENE 12.7 mph - N/A   Mostly Cloudy
3:51 PM 42.1 °F 35.7 °F 23.0 °F 47% 30.11 in 10.0 mi ENE 11.5 mph - N/A   Mostly Cloudy
4:51 PM 44.1 °F 38.6 °F 23.0 °F 43% 30.11 in 10.0 mi NE 10.4 mph - N/A   Mostly Cloudy
5:51 PM 42.1 °F 36.1 °F 23.0 °F 47% 30.11 in 10.0 mi East 10.4 mph - N/A   Scattered Clouds
6:51 PM 37.9 °F 30.5 °F 21.9 °F 53% 30.13 in 10.0 mi ENE 11.5 mph - N/A   Partly Cloudy
7:51 PM 36.0 °F 28.0 °F 21.0 °F 55% 30.15 in 10.0 mi East 11.5 mph - N/A   Partly Cloudy
8:51 PM 34.0 °F 26.0 °F 21.9 °F 61% 30.15 in 10.0 mi ENE 10.4 mph - N/A   Partly Cloudy
9:51 PM 35.1 °F 27.9 °F 21.9 °F 59% 30.15 in 10.0 mi NNE 9.2 mph - N/A   Partly Cloudy
10:51 PM 34.0 °F 31.0 °F 21.9 °F 61% 30.13 in 10.0 mi ENE 3.5 mph - N/A   Partly Cloudy
11:51 PM 32.0 °F 28.7 °F 21.9 °F 66% 30.12 in 10.0 mi ENE 3.5 mph - N/A   Scattered Clouds